SCP
0 0 0 1 1 1 0 0 0 0 1 2 3 3 3 3 3 2 2 1 1 1 0 0 0 0 0 0 0 0 0 0 0 0 0 0 0 0 0 0 0 0 0
0 0 0 0 1 1 0 0 0 0 1 2 3 3 3 3 3 3 3 2 1 1 1 0 0 0 0 0 0 0 0 0 0 0 0 0 0 0 0 0 0 0 0
0 0 0 0 0 1 1 0 0 0 0 1 2 3 3 4 4 4 4 3 3 2 1 1 1 0 0 0 0 0 0 0 0 0 0 0 0 0 0 0 0 0 0
0 0 0 0 0 0 0 0 0 0 0 1 1 2 3 4 4 4 5 4 4 3 2 2 1 1 1 0 0 0 0 0 0 0 0 0 0 0 0 0 0 0 0
0 0 0 0 0 0 0 0 0 0 0 0 1 1 2 3 4 4 4 4 4 4 3 2 1 1 0 0 0 0 0 0 0 0 0 0 0 0 0 0 0 0 0
0 0 0 0 0 0 0 0 0 0 0 0 0 1 2 2 3 2 2 3 3 3 2 1 1 0 0 0 0 0 0 0 0 0 0 0 0 0 0 0 0 0 0
0 0 0 0 0 0 0 0 0 0 0 0 0 0 1 1 1 1 1 2 2 2 2 1 1 0 0 0 0 0 0 0 0 0 0 0 0 0 0 0 0 0 0
0 0 0 0 0 0 0 0 0 0 0 0 0 0 0 1 0 0 0 1 1 1 1 1 1 0 0 0 0 0 0 0 0 0 0 0 0 0 0 0 0 0 0
0 0 0 0 0 0 0 0 0 0 0 0 0 0 0 0 0 0 0 0 0 1 1 1 1 0 0 0 0 0 0 0 0 0 0 0 0 0 0 0 0 0 0
0 0 0 0 0 0 0 0 0 0 0 0 0 0 0 0 0 0 0 0 0 0 0 0 0 0 0 0 0 0 0 0 0 0 0 0 0 0 0 0 0 0 0
0 0 0 0 0 0 0 0 0 0 0 0 0 0 0 0 0 0 0 0 0 0 0 0 0 0 0 0 0 0 0 0 0 0 0 0 0 0 0 0 0 0 0
0 0 0 0 0 0 0 0 0 0 0 0 0 0 0 0 0 0 0 0 0 0 0 0 0 0 0 0 0 0 0 0 0 0 0 0 0 0 0 0 0 0 0
0 0 0 0 0 0 0 0 0 0 0 0 0 0 0 0 0 0 0 0 0 0 0 0 0 0 0 0 0 0 0 0 0 0 0 0 0 0 0 0 0 0 0
0 0 0 0 0 0 0 0 0 0 0 0 0 0 0 0 0 0 0 0 0 0 0 0 0 0 0 0 0 0 0 0 0 0 0 0 0 0 0 0 0 0 0
0 0 0 0 0 0 0 0 0 0 0 0 0 0 0 0 0 0 0 0 0 0 0 0 0 0 0 0 0 0 0 0 0 0 0 0 0 0 0 0 0 0 0
0 0 0 0 0 0 0 0 0 0 0 0 0 0 0 0 0 0 0 0 0 0 0 0 0 0 0 0 0 0 0 0 0 0 0 0 0 0 0 0 0 0 0
0 0 0 0 0 0 0 0 0 0 0 0 0 0 0 0 0 0 0 0 0 0 0 0 0 0 0 0 0 0 0 0 0 0 0 0 0 0 0 0 0 0 0
0 0 0 0 0 0 0 0 0 0 0 0 0 0 0 0 0 0 0 0 0 0 0 0 0 0 0 0 0 0 0 0 0 0 0 0 0 0 0 0 0 0 0
0 0 0 0 0 0 0 0 0 0 0 0 0 0 0 0 0 0 0 0 0 0 0 0 0 0 0 0 0 0 0 0 0 0 0 0 0 0 0 0 0 0 0
0 0 0 0 0 0 0 0 0 0 0 0 0 0 0 0 0 0 0 0 0 0 0 0 0 0 0 0 0 0 0 0 0 0 0 0 0 0 0 0 0 0 0
0 0 0 0 0 0 0 0 0 0 0 0 0 0 0 0 0 0 0 0 0 0 0 0 0 0 0 0 0 0 0 0 0 0 0 0 0 0 0 0 0 0 0
0 0 0 0 0 0 0 0 0 0 0 0 0 0 0 0 0 0 0 0 0 0 0 0 0 0 0 0 0 0 0 0 0 0 0 0 0 0 0 0 0 0 0
0 0 0 0 0 0 0 0 0 0 0 0 0 0 0 0 0 0 0 0 0 0 0 0 0 0 0 0 0 0 0 0 0 0 0 0 0 0 0 0 0 0 0
0 0 0 0 0 0 0 0 0 0 0 0 0 0 0 0 0 0 0 0 0 0 0 0 0 0 0 0 0 0 0 0 0 0 0 0 0 0 0 0 0 0 0
0 0 0 0 0 0 0 0 0 0 0 0 0 0 0 0 0 0 0 0 0 0 0 0 0 0 0 0 0 0 0 0 0 0 0 0 0 0 0 0 0 0 0
0 0 0 0 0 0 0 0 0 0 0 0 0 0 0 0 0 0 0 0 0 0 0 0 0 0 0 0 0 0 0 0 0 0 0 0 0 0 0 0 0 0 0
Wind_Speed
8 8 9 9 10 11 11 12 12 11 11 12 12 13 15 15 16 16 16 14 16 15 14 15 16 13 11 9 9 9 9 9 12 7 4 4 6 6 5 5 5 6 6
6 7 8 8 8 10 11 12 11 12 11 12 11 12 13 15 15 17 17 16 17 17 16 16 16 12 14 11 10 11 10 9 10 11 5 4 6 6 5 5 4 4 4
5 6 7 8 8 9 10 10 10 10 11 11 11 12 13 14 14 15 16 16 17 17 16 16 15 14 15 12 11 11 9 8 9 9 7 4 3 3 3 3 3 3 3
5 6 7 7 8 9 8 8 9 9 10 11 11 12 12 12 13 13 14 15 15 15 15 15 14 15 15 13 11 12 9 9 8 8 7 4 3 3 3 3 4 4 4
5 6 7 7 7 7 7 7 8 8 9 10 10 10 11 10 11 12 13 14 14 14 14 14 14 15 16 13 10 10 10 9 7 7 7 5 4 4 5 4 5 3 3
7 7 6 6 6 6 7 7 7 8 8 8 9 10 11 9 12 16 14 12 13 13 13 12 11 12 13 15 15 13 12 11 10 8 7 7 7 6 5 5 4 3 3
8 7 6 6 6 7 7 6 7 8 7 9 9 10 11 12 14 15 17 13 12 12 12 10 8 8 10 10 12 13 12 13 13 10 9 9 7 7 7 6 6 5 4
8 8 7 6 7 7 6 7 7 6 7 8 9 9 9 10 12 14 14 13 11 11 10 10 10 9 9 10 9 8 8 8 9 8 8 7 5 6 7 7 6 4 2
8 8 8 7 7 7 7 8 7 6 7 7 6 7 8 9 11 12 12 9 9 10 9 9 9 9 11 13 10 8 7 5 3 5 6 5 6 7 8 6 5 4 3
9 9 9 8 8 8 8 8 6 6 7 6 6 6 7 7 8 10 12 7 8 7 6 6 8 10 11 13 10 8 8 6 4 3 3 3 3 5 8 6 6 5 3
9 10 9 8 8 8 7 6 5 5 5 5 6 6 5 6 7 9 11 7 7 6 6 5 5 10 11 12 10 8 9 7 6 6 4 4 3 3 2 2 3 4 4
9 9 9 8 7 6 6 6 5 5 6 6 6 6 5 4 5 7 9 10 7 6 6 5 5 10 10 10 8 8 9 8 5 5 4 4 3 3 3 3 4 3 2
9 9 8 8 7 6 5 6 5 4 4 5 5 6 5 3 3 6 7 9 9 5 4 6 8 10 9 6 8 9 7 5 5 5 5 4 3 4 4 4 4 5 5
9 9 8 7 7 5 4 4 4 4 4 4 5 5 4 3 3 3 3 4 5 5 4 5 7 8 7 6 5 5 4 4 4 5 4 4 4 4 4 3 3 3 3
9 8 8 7 6 5 5 4 4 4 4 5 5 4 4 5 4 5 4 4 4 4 4 3 3 3 4 3 3 3 3 3 3 3 4 5 4 4 4 3 3 3 3
8 8 6 6 5 5 5 5 4 6 6 6 5 4 4 4 3 5 6 7 7 9 6 4 4 4 5 5 5 4 3 4 4 4 4 5 5 5 5 4 3 3 3
8 8 6 6 5 5 4 5 5 5 4 5 5 5 4 3 3 4 6 7 8 9 4 4 4 5 4 4 4 4 4 4 4 4 5 5 5 5 5 5 4 3 3
8 7 7 6 5 5 5 4 4 4 4 3 2 3 3 3 3 4 5 6 4 4 2 3 3 3 4 4 4 4 4 4 4 4 5 5 5 5 5 5 4 4 4
7 6 6 5 5 5 4 4 4 4 3 3 2 1 1 1 2 3 5 3 3 3 2 2 2 3 3 3 3 4 4 5 5 5 5 5 5 5 5 4 4 6 4
6 8 7 5 5 5 4 4 3 3 3 2 2 2 1 1 1 1 1 1 2 2 2 2 2 2 3 3 3 4 4 4 5 4 4 4 4 4 5 5 5 5 4
6 7 7 5 4 4 4 4 3 3 3 3 2 3 3 1 1 1 2 1 1 1 2 2 2 2 3 3 3 4 4 3 4 4 4 4 4 4 3 4 4 4 4
5 5 5 5 4 4 4 4 3 3 3 3 3 3 4 2 2 2 2 2 2 2 2 2 2 2 2 2 3 3 3 4 4 4 4 4 4 4 4 4 4 4 4
5 5 5 4 4 4 4 3 3 3 3 3 3 3 3 2 2 2 2 3 3 3 3 3 3 3 3 3 3 3 3 3 3 4 4 4 4 4 4 4 5 5 4
5 5 4 4 4 4 4 4 3 3 3 3 3 3 3 2 2 3 3 3 3 3 3 3 3 4 4 4 3 3 2 2 3 3 4 4 4 4 4 4 4 5 4
4 4 4 4 3 3 3 3 3 3 3 3 3 3 3 3 3 3 3 3 3 3 4 3 3 3 4 4 3 3 3 3 3 3 3 4 4 4 4 4 4 4 4
4 4 3 3 3 3 3 3 3 3 3 3 3 3 3 2 2 2 2 2 2 3 3 3 3 3 3 3 3 3 3 3 3 3 3 3 4 4 4 4 5 4 5
Wind_Direction
232 231 233 232 230 229 228 228 228 228 223 220 215 212 211 211 212 216 220 217 221 223 220 222 225 220 223 222 220 222 226 229 250 249 215 207 198 207 208 206 209 212 220
238 236 236 237 235 233 233 232 228 228 226 223 220 218 215 213 211 214 218 218 221 223 223 223 225 221 224 223 222 224 225 223 237 252 231 211 211 205 199 201 207 209 215
249 241 241 241 239 239 238 237 235 232 228 224 221 222 220 217 215 216 218 219 221 223 222 223 224 220 224 223 222 224 225 223 228 242 242 210 203 181 184 199 203 210 210
269 252 248 246 244 244 242 239 236 235 233 228 225 226 223 220 219 217 218 220 222 223 222 222 222 220 223 221 221 223 221 221 223 234 240 217 197 168 169 197 218 212 218
288 268 261 260 256 252 248 245 241 237 236 234 230 228 224 221 220 217 218 221 223 224 223 223 223 222 221 220 219 218 216 221 220 227 236 225 202 180 198 189 207 201 213
295 277 274 272 265 258 253 249 247 244 241 235 232 229 227 225 221 217 217 222 222 223 224 222 220 217 220 219 219 216 212 217 221 223 229 226 219 204 190 183 184 179 223
299 288 280 275 270 265 263 257 251 247 243 239 237 232 233 231 220 215 215 220 223 223 222 220 218 215 212 217 218 219 223 224 219 220 228 226 214 196 181 185 191 195 206
296 291 288 283 275 271 264 256 254 251 246 245 242 237 237 235 220 215 212 220 226 224 219 215 215 212 208 204 206 212 220 224 223 225 231 230 210 186 182 183 178 163 120
302 300 296 287 280 274 265 261 259 257 254 249 245 238 238 240 223 215 208 221 226 227 221 215 211 211 205 195 196 204 210 216 207 200 207 206 187 171 158 142 147 152 182
303 299 296 290 279 272 268 266 264 256 255 252 249 241 236 240 224 213 207 219 223 221 215 213 210 205 198 190 196 197 207 207 174 158 160 160 164 162 164 169 168 168 166
307 303 300 294 285 277 275 271 266 262 258 253 253 253 243 238 232 217 210 217 218 213 208 208 206 197 194 191 193 199 202 180 165 165 164 155 141 141 153 159 161 167 173
308 305 303 301 298 291 284 280 270 257 256 256 255 259 253 240 232 226 215 217 212 210 213 202 192 185 185 186 190 188 176 163 158 160 166 170 167 163 150 133 118 99 97
311 306 304 303 298 291 283 281 277 259 252 256 250 255 259 245 231 224 219 214 210 210 204 184 174 172 170 178 181 173 166 164 164 172 182 184 168 149 132 116 102 96 80
311 309 307 305 302 295 283 275 271 265 257 254 250 250 254 249 233 214 210 207 201 201 189 164 159 159 158 152 153 160 166 169 172 177 166 153 138 139 143 138 139 136 119
309 308 308 304 299 297 288 278 270 266 254 251 253 246 243 250 244 210 195 199 192 183 160 154 162 165 169 163 152 148 154 159 162 159 156 153 152 150 149 146 145 149 153
311 311 309 306 303 298 295 298 284 266 271 257 256 253 259 253 236 207 201 191 176 165 158 174 183 183 182 177 168 161 162 166 163 157 158 159 161 161 156 152 151 160 163
302 304 303 300 298 296 292 290 299 305 272 259 259 259 255 242 216 201 191 180 170 163 170 181 183 180 173 168 167 165 168 167 157 157 159 161 158 156 157 161 161 157 158
307 303 300 296 294 292 289 287 284 290 301 305 284 264 255 234 208 186 171 158 164 164 168 169 171 168 164 165 166 163 159 155 156 158 158 158 157 157 160 164 167 165 163
312 309 307 308 305 298 295 292 288 285 286 298 316 326 288 215 188 179 165 165 168 170 163 156 150 150 154 153 154 156 157 160 159 156 157 159 159 158 162 165 166 164 162
312 314 315 313 314 315 313 309 306 303 302 303 312 323 0 75 90 104 123 121 137 139 137 137 132 133 138 141 141 143 146 147 149 149 151 154 156 157 161 163 166 167 169
313 315 320 319 319 320 321 321 319 314 315 319 332 355 30 73 68 60 65 67 83 104 113 115 115 121 123 127 130 134 139 142 145 144 145 146 145 147 152 156 159 159 156
313 314 319 320 321 326 328 328 331 333 337 339 342 0 28 48 55 61 61 49 42 47 63 84 88 85 94 110 125 134 139 139 140 140 141 141 142 146 149 150 151 152 155
318 319 322 325 326 329 332 335 342 346 346 349 353 2 19 34 36 41 51 50 49 50 51 65 77 73 68 70 79 108 128 136 140 142 143 144 148 154 156 158 160 161 164
324 323 324 328 332 335 339 341 346 350 352 355 359 5 13 23 34 40 45 49 53 53 53 57 65 72 74 72 72 75 86 101 113 129 138 145 150 153 155 158 162 165 166
326 328 330 333 334 336 339 344 348 353 357 359 2 9 20 31 37 37 40 46 52 56 54 55 63 68 76 78 78 78 85 92 105 122 135 142 149 154 156 158 161 160 162
329 332 334 337 340 341 343 345 349 352 356 2 9 12 18 28 33 35 40 49 54 55 52 53 59 66 72 78 86 90 99 109 115 126 140 143 148 154 156 158 160 163 164